| time (UTC) | temp F | wind direction | speed MPH | gust MPH | rain 1hr in | rain 24hr in | rain mn in | humidity % | barometer mb |
| 20260502162904 | 43 | 352 | 6.0 | 14.0 | 0.00 | 0.04 | 0.00 | 65 | 1014.7 |
| 20260502162404 | 43 | 3 | 10.0 | 17.0 | 0.00 | 0.05 | 0.00 | 64 | 1014.7 |
| 20260502161904 | 43 | 331 | 7.0 | 14.0 | 0.00 | 0.05 | 0.00 | 64 | 1014.7 |
| 20260502161419 | 43 | 354 | 3.0 | 12.0 | 0.00 | 0.05 | 0.00 | 65 | 1014.7 |
| 20260502160921 | 43 | 342 | 5.0 | 12.0 | 0.00 | 0.06 | 0.00 | 64 | 1014.7 |
| 20260502160423 | 43 | 305 | 7.0 | 12.0 | 0.00 | 0.06 | 0.00 | 64 | 1014.8 |
| 20260502151904 | 43 | 332 | 7.0 | 12.0 | 0.00 | 0.06 | 0.00 | 60 | 1014.8 |
| 20260502151404 | 43 | 295 | 6.0 | 12.0 | 0.00 | 0.06 | 0.00 | 61 | 1014.7 |
| 20260502150904 | 43 | 299 | 6.0 | 12.0 | 0.00 | 0.06 | 0.00 | 61 | 1014.6 |
| 20260502150403 | 43 | 326 | 6.0 | 10.0 | 0.00 | 0.06 | 0.00 | 59 | 1014.6 |
| 20260502130404 | 39 | 298 | 6.0 | 10.0 | 0.00 | 0.06 | 0.00 | 68 | 1015.2 |
| 20260502123403 | 38 | 269 | 6.0 | 10.0 | 0.00 | 0.06 | 0.00 | 70 | 1015.2 |
| 20260502122903 | 38 | 285 | 3.0 | 7.0 | 0.00 | 0.06 | 0.00 | 72 | 1015.2 |
| 20260502122403 | 38 | 315 | 5.0 | 8.0 | 0.00 | 0.06 | 0.00 | 70 | 1015.2 |
| 20260502121903 | 38 | 321 | 5.0 | 9.0 | 0.00 | 0.06 | 0.00 | 73 | 1015.2 |
| 20260502121404 | 38 | 310 | 4.0 | 8.0 | 0.00 | 0.06 | 0.00 | 74 | 1015.1 |
| 20260502120904 | 37 | 306 | 5.0 | 8.0 | 0.00 | 0.06 | 0.00 | 74 | 1015.2 |
| 20260502120403 | 37 | 324 | 5.0 | 12.0 | 0.00 | 0.06 | 0.00 | 73 | 1015.2 |
| 20260502115903 | 37 | 339 | 4.0 | 12.0 | 0.00 | 0.06 | 0.00 | 73 | 1015.2 |
| 20260502115403 | 37 | 321 | 5.0 | 10.0 | 0.00 | 0.06 | 0.00 | 74 | 1015.2 |
| 20260502114903 | 37 | 314 | 4.0 | 12.0 | 0.00 | 0.06 | 0.00 | 74 | 1015.3 |
| 20260502113904 | 36 | 320 | 5.0 | 8.0 | 0.00 | 0.06 | 0.00 | 75 | 1015.2 |
| 20260502113403 | 36 | 335 | 3.0 | 8.0 | 0.00 | 0.06 | 0.00 | 76 | 1015.2 |
| 20260502112403 | 35 | 321 | 2.0 | 6.0 | 0.00 | 0.06 | 0.00 | 78 | 1015.1 |
| 20260502111904 | 35 | 310 | 3.0 | 7.0 | 0.00 | 0.06 | 0.00 | 78 | 1015.1 |
| 20260502111403 | 35 | 306 | 2.0 | 6.0 | 0.00 | 0.06 | 0.00 | 79 | 1015.1 |
| 20260502110403 | 34 | 293 | 3.0 | 6.0 | 0.00 | 0.06 | 0.00 | 79 | 1015.1 |
| 20260502105904 | 34 | 310 | 3.0 | 6.0 | 0.00 | 0.06 | 0.00 | 79 | 1015.1 |
| 20260502105404 | 34 | 292 | 3.0 | 9.0 | 0.00 | 0.06 | 0.00 | 79 | 1015.1 |
| 20260502104904 | 34 | 317 | 3.0 | 6.0 | 0.00 | 0.06 | 0.00 | 80 | 1015.0 |
| 20260502103904 | 34 | 300 | 3.0 | 6.0 | 0.00 | 0.06 | 0.00 | 81 | 1014.9 |
| 20260502103404 | 34 | 311 | 3.0 | 7.0 | 0.00 | 0.06 | 0.00 | 81 | 1014.9 |
| 20260502102904 | 34 | 309 | 3.0 | 6.0 | 0.00 | 0.06 | 0.00 | 81 | 1014.8 |
| 20260502102404 | 34 | 320 | 3.0 | 3.0 | 0.00 | 0.06 | 0.00 | 82 | 1014.8 |
| 20260502101404 | 33 | 312 | 4.0 | 8.0 | 0.00 | 0.06 | 0.00 | 83 | 1014.7 |
| 20260502100904 | 33 | 333 | 1.0 | 6.0 | 0.00 | 0.06 | 0.00 | 83 | 1014.7 |
| 20260502100404 | 33 | 311 | 4.0 | 7.0 | 0.00 | 0.06 | 0.00 | 84 | 1014.7 |
| 20260502091404 | 34 | 308 | 2.0 | 3.0 | 0.00 | 0.06 | 0.00 | 82 | 1014.3 |
| 20260502071403 | 36 | 300 | 4.0 | 7.0 | 0.00 | 0.06 | 0.00 | 80 | 1013.9 |
| 20260502070904 | 36 | 317 | 5.0 | 7.0 | 0.00 | 0.06 | 0.00 | 82 | 1014.0 |
| 20260502070403 | 36 | 288 | 3.0 | 6.0 | 0.00 | 0.06 | 0.00 | 82 | 1014.0 |
| 20260502065903 | 36 | 302 | 2.0 | 3.0 | 0.00 | 0.06 | 0.00 | 81 | 1014.0 |
| 20260502065403 | 36 | 310 | 2.0 | 3.0 | 0.00 | 0.06 | 0.00 | 81 | 1014.0 |
| 20260502064903 | 36 | 318 | 2.0 | 6.0 | 0.00 | 0.06 | 0.00 | 80 | 1013.9 |
| 20260502063904 | 36 | 322 | 2.0 | 3.0 | 0.00 | 0.06 | 0.00 | 80 | 1013.9 |
| 20260502062403 | 37 | 334 | 1.0 | 3.0 | 0.00 | 0.06 | 0.00 | 79 | 1014.0 |
| 20260502061903 | 37 | 331 | 1.0 | 6.0 | 0.00 | 0.06 | 0.00 | 79 | 1014.0 |
| 20260502061403 | 37 | 320 | 2.0 | 3.0 | 0.00 | 0.06 | 0.00 | 79 | 1014.1 |
| 20260502060904 | 37 | 321 | 2.0 | 3.0 | 0.00 | 0.06 | 0.00 | 78 | 1014.0 |
| 20260502060404 | 37 | 327 | 2.0 | 3.0 | 0.00 | 0.06 | 0.00 | 78 | 1014.0 |
| 20260502055904 | 37 | 327 | 2.0 | 5.0 | 0.00 | 0.06 | 0.00 | 78 | 1014.0 |
| 20260502055404 | 37 | 332 | 2.0 | 3.0 | 0.00 | 0.06 | 0.00 | 77 | 1014.0 |
| 20260502054904 | 38 | 340 | 2.0 | 3.0 | 0.00 | 0.06 | 0.00 | 77 | 1014.1 |
| 20260502054403 | 38 | 325 | 1.0 | 6.0 | 0.00 | 0.06 | 0.00 | 77 | 1014.0 |
| 20260502052903 | 38 | 350 | 2.0 | 8.0 | 0.00 | 0.06 | 0.00 | 75 | 1014.1 |
| 20260502052404 | 38 | 354 | 4.0 | 8.0 | 0.00 | 0.06 | 0.00 | 75 | 1014.0 |
| 20260502051904 | 38 | 356 | 3.0 | 9.0 | 0.00 | 0.06 | 0.00 | 75 | 1013.9 |
| 20260502051404 | 39 | 2 | 3.0 | 8.0 | 0.00 | 0.06 | 0.00 | 75 | 1013.7 |
| 20260502050904 | 39 | 3 | 5.0 | 7.0 | 0.00 | 0.06 | 0.00 | 74 | 1013.6 |
| 20260502050403 | 39 | 11 | 5.0 | 9.0 | 0.00 | 0.06 | 0.00 | 75 | 1013.5 |
| 20260502045404 | 39 | 3 | 6.0 | 14.0 | 0.00 | 0.06 | 0.00 | 75 | 1013.6 |
| 20260502044904 | 39 | 11 | 5.0 | 9.0 | 0.00 | 0.06 | 0.00 | 75 | 1013.5 |
| 20260502044404 | 40 | 332 | 3.0 | 12.0 | 0.00 | 0.06 | 0.00 | 74 | 1013.4 |
| 20260502043903 | 40 | 330 | 7.0 | 12.0 | 0.00 | 0.06 | 0.00 | 73 | 1013.4 |
| 20260502043403 | 40 | 314 | 4.0 | 12.0 | 0.00 | 0.06 | 0.00 | 72 | 1013.3 |
| 20260502042904 | 41 | 346 | 4.0 | 8.0 | 0.00 | 0.06 | 0.00 | 70 | 1013.3 |
| 20260502041904 | 41 | 326 | 5.0 | 13.0 | 0.00 | 0.06 | 0.00 | 68 | 1013.2 |
| 20260502041403 | 42 | 328 | 3.0 | 10.0 | 0.00 | 0.06 | 0.00 | 68 | 1013.2 |
| 20260502040903 | 42 | 316 | 6.0 | 12.0 | 0.00 | 0.06 | 0.00 | 68 | 1013.1 |
| 20260502040404 | 42 | 319 | 5.0 | 10.0 | 0.00 | 0.06 | 0.00 | 67 | 1013.1 |
| 20260502035904 | 42 | 309 | 6.0 | 12.0 | 0.00 | 0.06 | 0.06 | 68 | 1013.2 |
| 20260502035404 | 42 | 320 | 5.0 | 12.0 | 0.00 | 0.06 | 0.06 | 69 | 1013.2 |
| 20260502034903 | 42 | 313 | 6.0 | 8.0 | 0.00 | 0.06 | 0.06 | 73 | 1013.1 |
| 20260502034404 | 41 | 308 | 5.0 | 8.0 | 0.00 | 0.06 | 0.06 | 76 | 1013.2 |
| 20260502033904 | 41 | 307 | 6.0 | 9.0 | 0.00 | 0.06 | 0.06 | 76 | 1013.1 |
| 20260502033404 | 41 | 301 | 3.0 | 8.0 | 0.00 | 0.06 | 0.06 | 79 | 1013.1 |
| 20260502032904 | 41 | 281 | 3.0 | 7.0 | 0.00 | 0.06 | 0.06 | 78 | 1013.0 |
| 20260502032404 | 41 | 282 | 3.0 | 6.0 | 0.00 | 0.06 | 0.06 | 78 | 1013.0 |
| 20260502031903 | 41 | 283 | 2.0 | 5.0 | 0.00 | 0.06 | 0.06 | 77 | 1013.1 |
| 20260502031403 | 41 | 258 | 2.0 | 3.0 | 0.00 | 0.06 | 0.06 | 77 | 1013.1 |
| 20260502030904 | 42 | 260 | 2.0 | 3.0 | 0.00 | 0.06 | 0.06 | 77 | 1013.1 |
| 20260502030404 | 42 | 262 | 2.0 | 3.0 | 0.00 | 0.06 | 0.06 | 78 | 1013.1 |
| 20260502025903 | 42 | 254 | 2.0 | 3.0 | 0.00 | 0.06 | 0.06 | 78 | 1013.2 |
| 20260502024904 | 42 | 238 | 2.0 | 3.0 | 0.00 | 0.06 | 0.06 | 77 | 1013.2 |
| 20260502024404 | 42 | 273 | 2.0 | 5.0 | 0.00 | 0.06 | 0.06 | 77 | 1013.3 |
| 20260502023903 | 42 | 258 | 2.0 | 3.0 | 0.00 | 0.06 | 0.06 | 77 | 1013.2 |
| 20260502022904 | 42 | 263 | 2.0 | 6.0 | 0.00 | 0.06 | 0.06 | 77 | 1013.2 |
| 20260502022404 | 42 | 294 | 3.0 | 5.0 | 0.00 | 0.06 | 0.06 | 78 | 1013.3 |
| 20260502021904 | 42 | 285 | 2.0 | 3.0 | 0.00 | 0.06 | 0.06 | 76 | 1013.3 |
| 20260502021403 | 42 | 319 | 0.0 | 3.0 | 0.00 | 0.06 | 0.06 | 76 | 1013.2 |
| 20260502020903 | 42 | 359 | 1.0 | 3.0 | 0.00 | 0.06 | 0.06 | 76 | 1013.3 |
| 20260502015904 | 43 | 308 | 5.0 | 8.0 | 0.00 | 0.06 | 0.06 | 75 | 1013.2 |
| 20260502015404 | 43 | 315 | 6.0 | 9.0 | 0.00 | 0.06 | 0.06 | 76 | 1013.1 |
| 20260502014903 | 43 | 311 | 5.0 | 7.0 | 0.00 | 0.06 | 0.06 | 77 | 1013.1 |
| 20260502014403 | 43 | 284 | 3.0 | 8.0 | 0.00 | 0.06 | 0.06 | 77 | 1013.0 |
| 20260502013903 | 43 | 279 | 5.0 | 9.0 | 0.00 | 0.06 | 0.06 | 77 | 1013.0 |
| 20260502013403 | 43 | 280 | 5.0 | 8.0 | 0.00 | 0.06 | 0.06 | 78 | 1012.9 |
| 20260502012904 | 43 | 251 | 1.0 | 5.0 | 0.00 | 0.06 | 0.06 | 78 | 1012.9 |
| 20260502012404 | 43 | 258 | 4.0 | 8.0 | 0.00 | 0.06 | 0.06 | 77 | 1012.8 |
| 20260502011904 | 43 | 265 | 4.0 | 9.0 | 0.00 | 0.06 | 0.06 | 77 | 1012.7 |
| 20260502011404 | 43 | 265 | 3.0 | 6.0 | 0.00 | 0.06 | 0.06 | 77 | 1012.7 |
| 20260502010403 | 43 | 283 | 6.0 | 9.0 | 0.00 | 0.06 | 0.06 | 77 | 1012.6 |
| 20260502005904 | 43 | 270 | 3.0 | 6.0 | 0.00 | 0.06 | 0.06 | 76 | 1012.5 |
| 20260502005404 | 42 | 279 | 1.0 | 3.0 | 0.00 | 0.06 | 0.06 | 77 | 1012.4 |
| 20260502004904 | 42 | 289 | 1.0 | 2.0 | 0.00 | 0.06 | 0.06 | 77 | 1012.4 |
| 20260502004403 | 43 | 291 | 0.0 | 0.0 | 0.00 | 0.06 | 0.06 | 76 | 1012.3 |
| 20260502003903 | 43 | 291 | 0.0 | 1.0 | 0.00 | 0.06 | 0.06 | 74 | 1012.2 |
| 20260502003403 | 43 | 291 | 0.0 | 1.0 | 0.00 | 0.06 | 0.06 | 73 | 1012.1 |
| 20260502002404 | 44 | 292 | 0.0 | 0.0 | 0.00 | 0.06 | 0.06 | 73 | 1011.9 |
| 20260502001903 | 44 | 291 | 0.0 | 0.0 | 0.00 | 0.06 | 0.06 | 72 | 1011.9 |
| 20260502000403 | 45 | 291 | 0.0 | 1.0 | 0.00 | 0.06 | 0.06 | 70 | 1011.8 |
| 20260501235903 | 45 | 287 | 0.0 | 1.0 | 0.00 | 0.06 | 0.06 | 70 | 1011.8 |
| 20260501235403 | 45 | 309 | 1.0 | 2.0 | 0.00 | 0.06 | 0.06 | 70 | 1011.9 |
| 20260501234903 | 45 | 293 | 1.0 | 2.0 | 0.00 | 0.06 | 0.06 | 71 | 1011.8 |
| 20260501234403 | 45 | 302 | 1.0 | 2.0 | 0.00 | 0.06 | 0.06 | 70 | 1011.7 |
| 20260501233904 | 45 | 295 | 1.0 | 2.0 | 0.00 | 0.06 | 0.06 | 70 | 1011.7 |
| 20260501233403 | 45 | 295 | 1.0 | 2.0 | 0.00 | 0.06 | 0.06 | 70 | 1011.7 |
| 20260501232903 | 45 | 299 | 1.0 | 2.0 | 0.00 | 0.06 | 0.06 | 70 | 1011.8 |
| 20260501232403 | 45 | 309 | 2.0 | 3.0 | 0.00 | 0.06 | 0.06 | 69 | 1011.7 |
| 20260501231904 | 46 | 318 | 2.0 | 3.0 | 0.00 | 0.06 | 0.06 | 70 | 1011.6 |
| 20260501231404 | 46 | 294 | 1.0 | 3.0 | 0.00 | 0.06 | 0.06 | 69 | 1011.6 |
| 20260501230403 | 46 | 284 | 1.0 | 3.0 | 0.00 | 0.06 | 0.06 | 69 | 1011.6 |
| 20260501225903 | 46 | 294 | 2.0 | 3.0 | 0.00 | 0.06 | 0.06 | 70 | 1011.6 |
| 20260501224904 | 46 | 291 | 3.0 | 3.0 | 0.00 | 0.06 | 0.06 | 70 | 1011.6 |
| 20260501224404 | 46 | 312 | 1.0 | 3.0 | 0.00 | 0.06 | 0.06 | 69 | 1011.5 |
| 20260501223903 | 46 | 307 | 2.0 | 3.0 | 0.00 | 0.06 | 0.06 | 69 | 1011.6 |
| 20260501222904 | 46 | 289 | 3.0 | 5.0 | 0.00 | 0.06 | 0.06 | 68 | 1011.5 |
| 20260501222404 | 46 | 278 | 1.0 | 3.0 | 0.00 | 0.06 | 0.06 | 70 | 1011.5 |
| 20260501221904 | 46 | 274 | 2.0 | 3.0 | 0.00 | 0.06 | 0.06 | 71 | 1011.5 |
| 20260501221404 | 46 | 289 | 2.0 | 3.0 | 0.00 | 0.06 | 0.06 | 70 | 1011.5 |
| 20260501220904 | 46 | 215 | 1.0 | 3.0 | 0.00 | 0.06 | 0.06 | 70 | 1011.5 |
| 20260501220404 | 46 | 253 | 1.0 | 3.0 | 0.00 | 0.06 | 0.06 | 71 | 1011.5 |
| 20260501215404 | 46 | 210 | 3.0 | 3.0 | 0.00 | 0.06 | 0.06 | 73 | 1011.5 |
| 20260501214904 | 46 | 285 | 3.0 | 5.0 | 0.00 | 0.06 | 0.06 | 74 | 1011.5 |
| 20260501214404 | 46 | 279 | 2.0 | 3.0 | 0.00 | 0.06 | 0.06 | 72 | 1011.5 |
| 20260501213904 | 45 | 248 | 1.0 | 3.0 | 0.00 | 0.06 | 0.06 | 75 | 1011.5 |
| 20260501212904 | 45 | 249 | 2.0 | 3.0 | 0.00 | 0.06 | 0.06 | 74 | 1011.6 |
| 20260501212404 | 45 | 273 | 2.0 | 3.0 | 0.00 | 0.06 | 0.06 | 76 | 1011.6 |
| 20260501211904 | 45 | 204 | 2.0 | 3.0 | 0.00 | 0.06 | 0.06 | 76 | 1011.4 |
| 20260501211404 | 45 | 274 | 2.0 | 5.0 | 0.00 | 0.06 | 0.06 | 76 | 1011.4 |
| 20260501210904 | 45 | 225 | 2.0 | 5.0 | 0.00 | 0.06 | 0.06 | 76 | 1011.4 |
| 20260501210404 | 45 | 258 | 1.0 | 3.0 | 0.00 | 0.06 | 0.06 | 76 | 1011.5 |
| 20260501205904 | 45 | 239 | 2.0 | 3.0 | 0.00 | 0.06 | 0.06 | 77 | 1011.5 |
| 20260501205403 | 45 | 266 | 2.0 | 5.0 | 0.00 | 0.06 | 0.06 | 78 | 1011.4 |
| 20260501204403 | 44 | 247 | 2.0 | 5.0 | 0.00 | 0.06 | 0.06 | 78 | 1011.3 |
| 20260501203403 | 44 | 211 | 2.0 | 5.0 | 0.00 | 0.06 | 0.06 | 80 | 1011.3 |
| 20260501202903 | 44 | 246 | 3.0 | 9.0 | 0.00 | 0.06 | 0.06 | 78 | 1011.3 |
| 20260501202403 | 44 | 209 | 2.0 | 6.0 | 0.00 | 0.06 | 0.06 | 80 | 1011.3 |
| 20260501201904 | 44 | 197 | 2.0 | 7.0 | 0.00 | 0.06 | 0.06 | 82 | 1011.3 |
| 20260501200904 | 43 | 215 | 5.0 | 9.0 | 0.00 | 0.06 | 0.06 | 80 | 1011.4 |
| 20260501200403 | 43 | 213 | 6.0 | 9.0 | 0.00 | 0.06 | 0.06 | 80 | 1011.4 |
| 20260501195904 | 43 | 211 | 6.0 | 9.0 | 0.00 | 0.06 | 0.06 | 80 | 1011.4 |
| 20260501195403 | 44 | 204 | 6.0 | 9.0 | 0.00 | 0.06 | 0.06 | 81 | 1011.4 |
| 20260501194403 | 43 | 191 | 2.0 | 6.0 | 0.00 | 0.06 | 0.06 | 82 | 1011.6 |
| 20260501193904 | 43 | 221 | 2.0 | 5.0 | 0.00 | 0.06 | 0.06 | 82 | 1011.7 |
| 20260501193404 | 43 | 215 | 1.0 | 3.0 | 0.00 | 0.06 | 0.06 | 81 | 1011.8 |
| 20260501192904 | 43 | 218 | 1.0 | 3.0 | 0.01 | 0.06 | 0.06 | 82 | 1011.8 |
| 20260501191904 | 42 | 250 | 1.0 | 3.0 | 0.01 | 0.06 | 0.06 | 82 | 1011.9 |
| 20260501190904 | 41 | 277 | 1.0 | 3.0 | 0.01 | 0.06 | 0.06 | 82 | 1012.1 |
| 20260501190404 | 41 | 289 | 2.0 | 3.0 | 0.01 | 0.06 | 0.06 | 82 | 1012.2 |
| 20260501184904 | 41 | 293 | 1.0 | 2.0 | 0.01 | 0.06 | 0.06 | 84 | 1012.3 |
| 20260501184404 | 41 | 287 | 2.0 | 3.0 | 0.01 | 0.06 | 0.06 | 83 | 1012.3 |
| 20260501183903 | 41 | 291 | 2.0 | 3.0 | 0.01 | 0.06 | 0.06 | 84 | 1012.4 |
| 20260501183404 | 41 | 314 | 3.0 | 6.0 | 0.01 | 0.06 | 0.06 | 82 | 1012.4 |
| 20260501182903 | 41 | 303 | 4.0 | 5.0 | 0.00 | 0.05 | 0.05 | 82 | 1012.4 |
| 20260501181903 | 41 | 281 | 3.0 | 6.0 | 0.01 | 0.05 | 0.05 | 81 | 1012.4 |
| 20260501181404 | 41 | 291 | 3.0 | 5.0 | 0.01 | 0.05 | 0.05 | 82 | 1012.4 |
| 20260501180904 | 41 | 313 | 1.0 | 3.0 | 0.01 | 0.05 | 0.05 | 84 | 1012.4 |
| 20260501180404 | 41 | 11 | 0.0 | 3.0 | 0.01 | 0.05 | 0.05 | 83 | 1012.4 |
| 20260501175904 | 41 | 340 | 1.0 | 3.0 | 0.01 | 0.05 | 0.05 | 82 | 1012.5 |
| 20260501174903 | 41 | 321 | 2.0 | 3.0 | 0.02 | 0.05 | 0.05 | 82 | 1012.5 |
| 20260501174403 | 41 | 290 | 0.0 | 2.0 | 0.02 | 0.05 | 0.05 | 83 | 1012.5 |
| 20260501173903 | 41 | 314 | 1.0 | 3.0 | 0.02 | 0.05 | 0.05 | 82 | 1012.5 |
| 20260501173403 | 41 | 320 | 1.0 | 3.0 | 0.03 | 0.05 | 0.05 | 81 | 1012.6 |
| 20260501172904 | 41 | 334 | 2.0 | 5.0 | 0.03 | 0.05 | 0.05 | 81 | 1012.6 |
| 20260501172403 | 42 | 336 | 1.0 | 3.0 | 0.03 | 0.04 | 0.04 | 83 | 1012.7 |
| 20260501171903 | 42 | 299 | 1.0 | 3.0 | 0.03 | 0.04 | 0.04 | 82 | 1012.6 |
| 20260501171403 | 42 | 333 | 1.0 | 2.0 | 0.03 | 0.04 | 0.04 | 82 | 1012.6 |
| 20260501170903 | 41 | 320 | 2.0 | 5.0 | 0.04 | 0.04 | 0.04 | 81 | 1012.6 |
| 20260501170403 | 42 | 355 | 2.0 | 3.0 | 0.04 | 0.04 | 0.04 | 81 | 1012.6 |
| 20260501165904 | 42 | 309 | 2.0 | 5.0 | 0.04 | 0.04 | 0.04 | 80 | 1012.6 |
| 20260501165403 | 42 | 313 | 5.0 | 8.0 | 0.04 | 0.04 | 0.04 | 80 | 1012.7 |
| 20260501164404 | 42 | 326 | 2.0 | 3.0 | 0.03 | 0.03 | 0.03 | 82 | 1012.7 |
| 20260501163904 | 43 | 331 | 2.0 | 5.0 | 0.03 | 0.03 | 0.03 | 80 | 1012.7 |
| 20260501163403 | 43 | 313 | 2.0 | 3.0 | 0.02 | 0.02 | 0.02 | 76 | 1012.7 |